Location: Ehrke Reservoir
(40.0279°N, 99.6641°W)
Time: 13:34:00
(UTC+00:00)

YAOGAN 1 - Pass Details

Date: 20 January 2020
Orbit: 619 x 621 km, 98.0° (Epoch: 16 February)

Event Time Altitude Azimuth Distance (km) Brightness Sun altitude
Rises 01:50:59 0° 189° (S) 2,882 6.2 -24.4°
Reaches altitude 10° 01:53:21 10° 200° (SSW) 1,981 5.4 -24.9°
Maximum altitude 01:57:12 31° 263° (W) 1,088 4.4 -25.6°
Drops below altitude 10° 02:01:04 10° 326° (NNW) 1,994 5.5 -26.3°
Sets 02:03:28 0° 337° (NNW) 2,905 6.2 -26.8°
